Погода в Камышове

Россия / Астраханская область     45°56′56″N   47°27′09″E
темп.,
°C
ветер,
м/с
пор.,
м/с
влажн.,
%
обл.,
%
осадки,
мм/ч
давл.,
гПа
погр.,
м
17 сентября, пт
пт1701:00+18ссв7103996 0.0 1016658
04:00+16ссв6942100 0.0 1017489
07:00+14св684498 0.0 1018483
10:00+15ссв564096 0.0 1018682
13:00+17ссв3433100 0.0 1018881
16:00+20с343074 0.0 1017929
19:00+18с233425 0.0 101722
22:00+17в344898 0.0 1018144
18 сентября, сб
сб1801:00+17юв3342100 0.0 1017188
04:00+17юв334499 0.0 1017144
07:00+16в3450100 0.0 1018194
10:00+17вюв3339100 0.0 1019394
13:00+19вюв333775 0.0 10181025
16:00+20в223640 0.0 10181074
19:00+18ююв68515 0.0 1018325
22:00+16юв475988 0.0 1019198
19 сентября, вс
вс1901:00+15вюв46608 0.0 1019130
04:00+14вюв4659100 0.0 1019128
07:00+15в596073 0.0 1019231
10:00+20вюв81045100 0.0 10201107
13:00+22вюв9103671 0.0 10191181
16:00+21вюв9103787 0.0 10191046
19:00+18в81153100 0.0 1019614
22:00+17в71360100 0.0 1019540
20 сентября, пн
пн2001:00+18в8146078 0.0 1018521
04:00+18вюв81457100 0.0 1017519
07:00+18вюв9165698 0.0 1017470
10:00+21вюв91240100 0.0 1017610
13:00+23юв8104199 0.0 1016797
16:00+22юв7853100 0.0 1016712
19:00+19юв58725 0.0 1016353
22:00+18вюв3581100 0.0 1017138
21 сентября, вт
вт2101:00+17вюв468587 0.0 1016134
04:00+17в3482100 0.0 101573
07:00+17в3381100 0.0 101571
10:00+20вюв3466100 0.0 1016219
13:00+23юв5556100 0.0 1015624
16:00+23юв6655100 0.0 1015626
19:00+20юв586893 0.0 1015235
22:00+18вюв46755 0.0 1016129